Location: Unspecified
(40.7945°N, 0.0000°E)
Time: 01:49:44
(UTC+00:00)

Altair - Pass Details

Date: 27 January 2021
Orbit: 1501 x 1682 km, 47.2° (Epoch: 01 March)

Event Time Altitude Azimuth Distance (km) Brightness Sun altitude
Rises 12:02:43 0° 295° (WNW) 4,937 9.9 30.8°
Reaches altitude 10° 12:06:27 10° 285° (WNW) 3,937 9.6 30.9°
Maximum altitude 12:14:32 29° 231° (SW) 2,709 9.6 30.9°
Drops below altitude 10° 12:22:28 10° 177° (S) 3,838 11.2 30.8°
Sets 12:26:06 0° 166° (SSE) 4,793 11.1 30.8°
